NOAA 16 DEB, 41349

Orbit data source: Space-Track

NOAA 16 DEB, 41349 is space debris in SSO originally from a launch on Thu, 21 Sep 2000 UTC launched from the Air Force Western Test Range (AFWTR). Debris objects in space refer to the collection of defunct objects orbiting the Earth. Examples of debris include non-operational satellites, rocket bodies, and fragments generated from explosions, collisions, or faulty payload assembly.

Loading next visibility...
Identifier
41349, 2000-055HS
Orbit
SSO
Country
Flag of USUS
Related business
Manufacturer
Unknown
Mission
Spacecraft
Bus & Motor
Unknown
Mass
Unknown
Launch date (UTC)
2000-09-21 (26 years ago)
Launch vehicle
Unknown
Launch site
Air Force Western Test Range (AFWTR)
Object type
Payload
Rocket body
Debris
Shape & HBR
Unknown shape, 0.1 m
Radar Cross Section
Small (<0.1 m²)

Expand to show TLE details & history
Last TLE update: 21 hours ago

TLE from 21 hours ago
0 NOAA 16 DEB
1 41349U 00055HS  26127.29994397  .00004484  00000-0  10873-2 0  9992
2 41349  98.9722 335.9149 0027380 220.9644 138.9494 14.53268095537513
Epoch: 2026-05-07T07:11Z
TLE epoch observation values (Epoch: 2026-05-07T07:11:55.159Z)
Latitude
0.00007°
Longitude
2.78699°
Altitude
732.618 km
Speed
7.481 km/s
True Right ascension
22h 23m 39s
True Declination
0° 00' 00"
Sunlit
Object was in daylight at epoch
Visualization orbit readout
Latitude
Unknown
Longitude
Unknown
Altitude
Unknown
Speed
Unknown
Apparent Right ascension
Unknown
Apparent Declination
Unknown
Sunlit
N/A
Visualization observer readout
Local Sidereal Time
11:59:22
Azimuth
Unknown
Elevation
Unknown
Doppler factor
Unknown
Orbital elements
Apogee altitude
731.535 km
Perigee altitude
692.709 km
Semi-major axis
7,090.259 km
Eccentricity
0.00274
Inclination
98.9722°
RAAN
335.9149°
Arg. of periapsis
220.9644°
True anomaly
139.15492°
Mean anomaly
138.9494°
Eccentric anomaly
139.05221°
Mean motion
3.63538 °/min
Orbital period
99.03 mins
BSTAR
0.0010873
Loading maneuver chart data...
Computing Atmospheric mass density...
Loading historical data...
Loading historical data...
Loading historical data...
Loading historical data...
Loading historical data...
Loading historical data...
Loading historical data...

Documentation

Showing up to 5 results
|